SCP
-0 -0 -0 -0 -0 0 -0 0 0 -0 0 -0 0 0 -0 0 0 -0 -0 -0 -0 0 0 -0 0 0 0 0 -0 -0 -0 -0 -0 -0 -0 -0 -0 -0 -0 -0 0 -0 -0
0 0 -0 -0 -0 -0 -0 -0 0 -0 -0 -0 -0 -0 -0 -0 -0 -0 -0 -0 -0 -0 -0 -0 0 0 0 0 -0 -0 -0 0 -0 -0 -0 -0 -0 -0 -0 0 -0 -0 0
-0 -0 0 -0 -0 -0 -0 -0 -0 -0 -0 -0 -0 -0 -0 -0 -0 -0 -0 -0 -0 -0 -0 -0 -0 -0 -0 -0 -0 -0 0 0 0 -0 0 0 -0 -0 -0 -0 0 0 0
-0 -0 -0 -0 -0 -0 -0 -0 -0 -0 -0 -0 -0 -0 -0 -0 -0 -0 -0 -0 -0 -0 -0 -0 -0 -0 -0 -0 -0 -0 -0 -0 -0 0 -0 -0 -0 -0 -0 -0 -0 0 0
-0 -0 0 -0 -0 -0 -0 -0 -0 -0 -0 -0 -0 -0 -0 -0 -0 -0 -0 -0 -0 -0 -0 -0 -0 -0 -0 -0 -0 0 -0 -0 -0 -0 -0 -0 -0 -0 -0 -0 -0 -0 -0
0 0 -0 0 0 0 0 0 -0 -0 -0 -0 0 -0 -0 -0 -0 0 0 0 0 0 0 0 0 -0 0 0 0 0 0 -0 -0 -0 -0 0 0 -0 -0 0 0 0 -0
-0 0 -0 -0 -0 0 0 0 0 0 0 0 0 0 0 0 0 0 0 0 0 0 0 0 0 0 0 -0 -0 -0 -0 -0 -0 -0 -0 -0 -0 -0 -0 0 0 0 0
-0 -0 -0 -0 -0 -0 -0 0 0 0 0 0 0 0 0 0 -0 0 0 0 0 0 -0 -0 -0 -0 -0 -0 -0 -0 -0 -0 -0 -0 -0 -0 -0 -0 -0 0 -0 0 0
0 -0 -0 -0 -0 -0 -0 -0 -0 -0 0 0 0 0 0 -0 0 -0 0 -0 -0 -0 -0 -0 -0 -0 -0 -0 -0 -0 -0 -0 -0 0 -0 -0 -0 -0 -0 -0 0 -0 -0
0 0 0 -0 -0 -0 -0 -0 -0 -0 -0 -0 -0 0 0 0 -0 -0 -0 -0 -0 -0 -0 -0 -0 -0 -0 -0 -0 -0 -0 -0 -0 -0 -0 0 -0 -0 -0 -0 -0 -0 -0
0 0 0 -0 -0 0 0 -0 -0 -0 -0 -0 -0 -0 -0 -0 -0 -0 -0 -0 0 -0 -0 -0 -0 -0 -0 -0 -0 -0 -0 -0 -0 -0 0 -0 0 -0 -0 -0 0 -0 -0
-0 -0 0 0 -0 -0 0 -0 -0 -0 -0 -0 -0 -0 -0 -0 0 0 0 0 -0 -0 -0 -0 -0 -0 -0 -0 -0 -0 -0 -0 -0 -0 0 -0 -0 -0 -0 -0 -0 -0 -0
-0 -0 -0 0 0 -0 0 0 0 0 0 -0 -0 -0 -0 0 0 -0 -0 -0 0 -0 -0 0 -0 -0 -0 0 -0 -0 -0 -0 -0 -0 0 -0 -0 -0 -0 -0 -0 0 -0
-0 -0 -0 -0 0 0 0 0 0 0 0 0 -0 -0 0 -0 0 0 0 0 0 0 -0 -0 0 -0 -0 -0 -0 -0 -0 0 0 0 0 -1 -0 -0 -0 -0 0 0 -0
-0 -0 -0 -0 -0 0 0 0 0 0 0 0 -0 -0 -0 -0 -0 0 0 0 0 0 0 0 0 0 -0 0 0 0 0 -0 0 -0 0 -0 -0 -0 -0 -0 -0 0 0
-0 -0 -0 -0 -0 0 0 0 0 0 0 0 0 -0 -0 -0 -0 0 0 0 0 0 0 0 0 0 0 0 0 0 0 0 0 -0 0 0 -0 0 0 0 0 -0 -0
-0 -0 -0 -0 -0 -0 0 0 0 -0 -0 -0 -0 0 -0 0 -0 0 0 0 -0 0 -0 -0 -0 0 0 0 0 0 0 0 0 -0 -0 -0 0 -0 0 0 0 -0 -0
-0 -0 0 0 0 -0 0 0 0 -0 -0 -0 -0 -0 0 0 -0 -0 -0 0 0 0 0 0 0 0 0 0 0 0 0 0 0 0 0 -0 0 0 0 0 0 -0 -0
-0 -0 -0 -0 0 0 0 0 0 -0 -0 -0 -0 -0 0 -0 -0 -0 -0 0 0 0 0 0 0 0 0 0 0 0 0 0 0 0 0 0 0 0 0 0 0 0 -0
-0 -0 -0 0 0 0 0 0 0 -0 -0 0 0 0 0 0 0 0 0 0 0 0 0 0 0 0 0 0 0 0 0 0 0 0 0 0 0 0 0 0 0 0 -0
-0 -0 -0 -0 0 0 0 0 0 -0 0 0 0 -0 0 0 0 0 0 0 0 0 0 0 0 0 0 0 0 0 0 0 0 0 0 0 0 0 0 0 0 0 0
-0 -0 -0 0 -0 0 0 0 0 0 -0 -0 0 0 -0 -0 0 0 0 0 0 0 0 0 0 0 0 0 0 0 0 0 0 0 0 0 0 0 0 0 0 0 0
-0 -0 -0 -0 -0 -0 -0 0 -0 -0 -0 0 0 0 0 -0 -0 0 0 0 0 0 0 0 0 0 0 0 0 0 0 0 0 0 0 0 0 0 0 0 0 0 0
-0 -0 -0 -0 -0 -0 -0 -0 -0 -0 -0 -0 0 0 0 0 -0 -0 -0 0 0 0 0 0 0 0 0 0 0 0 0 0 0 0 0 0 0 0 0 0 0 0 0
0 -0 0 -0 -0 -0 -0 -0 -0 -0 -0 -0 0 -0 0 0 0 -0 0 0 0 0 0 0 0 1 0 1 0 0 0 0 0 0 0 0 0 0 0 0 0 0 0
0 0 0 0 0 0 -0 -0 -0 -0 -0 -0 -0 0 0 0 0 0 0 0 0 0 0 0 0 1 1 0 1 0 0 0 0 1 0 0 0 0 0 0 0 0 0
Wind_Speed_500mb
43 45 48 44 44 46 45 44 43 43 41 41 40 36 29 26 26 26 25 22 19 14 13 7 6 5 4 4 5 7 8 7 5 2 1 3 5 6 7 8 12 12 15
53 47 50 48 45 46 44 41 40 40 38 35 31 26 21 18 18 20 19 18 16 12 12 6 5 4 5 7 9 10 11 11 10 7 1 8 3 8 8 8 24 21 11
53 49 51 48 44 44 41 41 38 36 34 30 26 22 17 15 18 18 17 15 12 8 7 8 8 6 6 6 6 6 6 8 8 6 5 7 6 5 9 10 14 12 9
53 49 45 50 44 41 39 37 35 33 31 26 23 20 17 17 17 16 13 11 10 10 11 10 8 7 6 6 5 4 3 2 3 5 4 8 8 10 8 7 9 10 10
49 45 45 48 44 41 39 35 33 31 28 23 20 19 19 18 17 15 14 12 12 11 11 9 9 8 8 8 8 7 4 0 2 5 8 8 8 15 10 10 11 10 9
47 43 45 46 43 40 37 35 32 27 23 18 18 20 20 18 17 15 15 13 12 12 12 12 12 13 14 13 12 10 8 4 2 3 6 10 7 23 12 8 10 11 10
49 42 47 44 42 39 35 32 28 24 18 16 18 20 19 19 17 16 15 14 14 14 15 15 15 15 15 14 14 13 13 11 8 14 12 8 6 7 12 10 10 10 8
48 43 45 42 39 37 33 29 25 21 18 16 15 18 18 17 16 15 14 15 15 15 14 13 12 13 13 14 13 13 13 14 13 15 16 13 19 10 9 10 11 12 13
43 41 39 40 39 36 33 28 24 22 21 19 18 17 18 16 16 15 15 15 12 10 10 11 11 12 13 14 13 14 13 13 14 18 19 16 27 14 10 11 17 23 22
43 39 37 36 34 32 30 28 24 22 23 21 20 18 17 17 16 15 12 8 9 9 10 14 16 15 15 16 16 16 15 16 18 17 20 19 28 17 16 18 19 25 30
42 40 38 36 35 32 28 26 26 25 24 23 21 20 19 15 16 15 14 13 8 10 13 14 13 12 12 13 15 16 18 14 14 16 18 28 22 23 19 17 17 20 27
46 43 39 37 35 33 29 27 26 23 21 21 21 21 18 19 20 19 19 10 9 11 13 11 10 11 11 9 17 15 11 12 14 16 17 28 20 18 16 16 17 18 24
47 43 41 39 37 33 29 27 24 24 23 24 27 24 20 19 17 15 13 11 12 12 9 12 15 10 8 12 13 14 16 18 16 17 18 20 17 18 17 18 20 21 23
48 45 42 40 39 36 30 27 25 24 24 22 21 25 25 22 19 18 16 15 15 10 14 12 10 9 10 14 14 16 16 17 17 19 22 23 22 22 21 22 24 26 26
48 46 44 42 40 37 36 28 27 26 24 22 24 25 26 23 22 19 19 17 16 16 13 12 14 12 15 13 14 16 18 21 21 23 24 31 27 27 27 27 26 26 25
46 45 44 43 43 42 37 35 28 25 26 25 24 25 31 25 22 22 21 20 18 17 18 16 15 16 9 13 15 17 18 19 22 25 24 26 29 27 25 25 24 21 22
45 41 42 42 41 44 41 37 33 27 25 26 25 26 30 30 26 25 21 20 19 19 18 17 19 15 13 15 16 18 17 19 23 23 23 23 25 24 27 24 20 17 17
46 43 40 37 38 41 42 39 34 30 29 28 27 26 30 28 27 25 22 19 17 17 18 19 19 20 19 19 20 20 21 22 23 23 26 25 23 20 27 26 22 20 16
49 45 44 42 39 39 40 40 39 35 37 31 30 29 30 33 30 30 25 23 24 20 21 20 20 19 21 19 20 23 24 23 24 19 21 26 30 27 24 30 27 23 21
51 50 48 46 45 40 35 41 35 35 37 35 34 32 31 29 33 33 29 29 25 23 22 24 25 19 25 26 18 27 27 21 24 23 21 22 24 28 28 28 30 29 26
53 52 54 52 50 48 44 40 41 40 37 37 37 39 39 36 36 37 29 29 28 28 28 26 25 24 20 18 21 20 23 28 26 25 23 20 23 28 28 32 31 23 26
58 57 56 61 60 61 52 47 41 37 38 35 35 38 41 39 41 40 40 32 30 32 29 23 26 22 21 20 16 19 18 14 13 18 15 19 22 24 24 30 30 31 28
62 62 65 69 68 65 60 50 47 45 38 35 40 43 41 44 42 43 44 41 37 34 30 32 25 23 22 23 24 17 20 13 9 13 13 12 12 20 25 27 29 32 34
67 59 63 67 67 67 65 58 56 50 48 44 41 36 37 42 46 44 43 44 48 37 35 32 28 28 23 24 22 20 20 24 23 20 8 11 16 10 22 26 30 35 34
53 57 57 63 65 63 63 65 59 59 50 44 43 44 43 39 43 43 44 43 45 42 37 36 38 39 29 31 26 24 23 22 24 23 28 16 9 14 15 22 30 34 38
52 53 54 57 65 65 65 63 62 64 65 51 47 45 42 38 36 43 45 43 40 38 39 40 39 37 37 33 35 31 28 26 25 23 26 25 24 25 22 22 22 28 33
Wind_Direction_500mb
161 160 152 149 147 149 147 143 139 140 143 141 138 137 131 132 137 142 149 157 158 159 154 135 139 146 177 217 250 264 263 268 278 257 143 78 116 125 131 114 113 137 157
154 160 154 151 147 148 152 147 146 142 145 147 150 152 144 143 152 155 160 163 169 173 187 204 212 240 258 272 275 275 279 274 268 267 309 32 130 147 156 141 126 203 157
155 161 157 156 153 151 151 149 148 149 152 151 155 159 159 156 157 164 168 173 185 204 225 262 271 273 282 283 287 284 274 264 254 235 133 121 249 169 164 165 168 185 167
156 159 161 161 159 159 158 156 154 154 158 162 166 171 175 174 172 174 185 199 213 237 255 262 265 273 281 291 290 292 288 226 216 195 129 193 176 246 199 185 171 180 186
155 156 170 164 164 165 164 164 162 162 162 166 173 180 183 186 189 195 207 219 229 233 235 242 253 265 271 274 277 279 290 299 118 151 205 179 183 251 223 213 196 187 167
154 158 172 168 168 170 171 168 165 166 167 178 190 197 201 201 198 201 208 217 221 229 236 246 259 266 269 268 269 270 268 267 217 191 228 258 254 240 239 209 191 200 202
156 164 167 168 168 169 172 174 175 176 185 190 197 197 196 202 205 210 217 223 234 247 259 265 267 266 268 266 264 263 259 248 226 237 239 234 262 207 207 211 210 216 228
158 163 167 170 171 174 179 181 184 183 184 184 186 188 193 197 203 210 225 240 251 258 261 267 273 276 272 267 263 259 257 255 251 245 237 238 245 242 220 214 224 217 206
162 162 167 171 176 179 182 184 192 189 186 190 190 191 196 207 220 230 240 249 254 261 271 273 268 268 271 271 269 267 264 259 236 245 246 239 261 246 238 237 235 235 221
165 169 169 172 176 178 189 190 196 198 192 200 204 208 216 227 236 240 240 255 266 264 275 278 280 275 277 272 265 262 263 263 249 248 257 232 243 239 248 257 249 240 231
172 174 174 179 178 181 186 199 198 202 197 201 208 214 225 230 249 247 245 235 254 280 284 289 281 277 272 265 268 256 252 250 252 247 242 256 238 240 249 253 253 255 242
178 181 182 180 185 185 184 200 192 202 204 209 213 223 226 226 225 219 226 219 262 292 304 292 295 284 280 254 283 277 246 249 247 244 243 250 242 246 245 257 260 260 252
183 184 187 185 188 190 187 193 195 202 206 216 218 219 221 222 233 226 239 253 277 292 325 295 275 283 251 240 238 241 244 238 234 239 239 248 246 250 260 267 267 267 259
188 188 189 191 193 190 195 197 203 204 212 212 225 228 218 216 224 223 236 250 270 273 280 318 297 256 245 248 238 241 246 238 241 239 245 256 261 261 260 270 274 274 266
192 192 192 195 199 195 199 202 202 210 219 220 223 228 218 220 227 232 243 247 261 265 284 288 295 282 270 260 256 247 248 243 242 245 248 264 260 272 266 265 266 271 265
196 197 197 200 204 205 206 206 210 213 217 219 227 229 226 222 234 244 253 251 261 265 266 273 275 271 263 269 264 252 250 248 252 243 247 259 273 260 258 260 260 268 262
202 200 201 203 207 212 214 216 217 218 223 223 228 225 223 229 243 242 247 251 260 265 271 282 289 278 270 270 270 252 253 250 246 248 246 244 264 267 245 244 251 264 260
199 203 203 208 210 216 218 219 217 221 221 227 228 229 231 232 239 242 247 252 259 268 276 274 274 277 281 280 278 262 262 256 255 253 249 239 242 249 251 239 244 256 259
204 205 205 206 208 212 218 220 222 223 223 221 226 232 240 240 244 245 245 252 266 269 275 274 275 276 272 287 279 276 266 262 253 249 248 246 242 225 225 244 234 248 255
208 209 211 211 213 214 214 222 222 224 227 226 227 230 236 240 243 249 253 255 261 264 273 271 265 267 277 292 285 272 268 268 255 254 253 254 238 228 221 223 239 237 245
210 213 214 217 219 220 221 221 222 224 227 230 232 236 241 243 242 244 249 257 263 269 273 269 273 290 289 269 294 298 275 274 256 259 264 249 239 235 227 226 224 223 241
208 210 215 220 224 227 226 226 225 229 232 234 237 239 246 247 248 247 248 249 255 262 279 268 267 271 287 274 281 291 288 267 257 248 249 243 242 237 231 222 226 220 214
209 209 211 215 223 226 226 229 233 232 235 240 240 243 247 250 251 252 248 251 253 260 270 282 268 279 285 276 278 264 301 298 330 259 274 256 267 230 232 230 229 229 229
211 209 212 214 219 228 233 227 236 236 240 247 249 252 248 251 255 257 260 261 258 252 256 270 277 268 277 280 280 288 273 268 286 292 248 274 301 258 237 233 236 236 231
214 212 213 219 222 226 238 239 239 246 245 251 251 250 248 247 253 256 258 266 260 252 253 263 267 274 265 279 270 278 279 278 277 267 281 274 287 277 257 257 241 235 234
213 213 213 218 223 225 231 240 245 251 261 252 254 251 254 251 253 262 255 262 255 240 247 261 270 267 269 265 270 272 270 273 280 270 275 275 283 282 271 266 254 240 230
Wind_Speed_850mb
43 45 48 44 44 46 45 44 43 43 41 41 40 36 29 26 26 26 25 22 19 14 13 7 6 5 4 4 5 7 8 7 5 2 1 3 5 6 7 8 12 12 15
53 47 50 48 45 46 44 41 40 40 38 35 31 26 21 18 18 20 19 18 16 12 12 6 5 4 5 7 9 10 11 11 10 7 1 8 3 8 8 8 24 21 11
53 49 51 48 44 44 41 41 38 36 34 30 26 22 17 15 18 18 17 15 12 8 7 8 8 6 6 6 6 6 6 8 8 6 5 7 6 5 9 10 14 12 9
53 49 45 50 44 41 39 37 35 33 31 26 23 20 17 17 17 16 13 11 10 10 11 10 8 7 6 6 5 4 3 2 3 5 4 8 8 10 8 7 9 10 10
49 45 45 48 44 41 39 35 33 31 28 23 20 19 19 18 17 15 14 12 12 11 11 9 9 8 8 8 8 7 4 0 2 5 8 8 8 15 10 10 11 10 9
47 43 45 46 43 40 37 35 32 27 23 18 18 20 20 18 17 15 15 13 12 12 12 12 12 13 14 13 12 10 8 4 2 3 6 10 7 23 12 8 10 11 10
49 42 47 44 42 39 35 32 28 24 18 16 18 20 19 19 17 16 15 14 14 14 15 15 15 15 15 14 14 13 13 11 8 14 12 8 6 7 12 10 10 10 8
48 43 45 42 39 37 33 29 25 21 18 16 15 18 18 17 16 15 14 15 15 15 14 13 12 13 13 14 13 13 13 14 13 15 16 13 19 10 9 10 11 12 13
43 41 39 40 39 36 33 28 24 22 21 19 18 17 18 16 16 15 15 15 12 10 10 11 11 12 13 14 13 14 13 13 14 18 19 16 27 14 10 11 17 23 22
43 39 37 36 34 32 30 28 24 22 23 21 20 18 17 17 16 15 12 8 9 9 10 14 16 15 15 16 16 16 15 16 18 17 20 19 28 17 16 18 19 25 30
42 40 38 36 35 32 28 26 26 25 24 23 21 20 19 15 16 15 14 13 8 10 13 14 13 12 12 13 15 16 18 14 14 16 18 28 22 23 19 17 17 20 27
46 43 39 37 35 33 29 27 26 23 21 21 21 21 18 19 20 19 19 10 9 11 13 11 10 11 11 9 17 15 11 12 14 16 17 28 20 18 16 16 17 18 24
47 43 41 39 37 33 29 27 24 24 23 24 27 24 20 19 17 15 13 11 12 12 9 12 15 10 8 12 13 14 16 18 16 17 18 20 17 18 17 18 20 21 23
48 45 42 40 39 36 30 27 25 24 24 22 21 25 25 22 19 18 16 15 15 10 14 12 10 9 10 14 14 16 16 17 17 19 22 23 22 22 21 22 24 26 26
48 46 44 42 40 37 36 28 27 26 24 22 24 25 26 23 22 19 19 17 16 16 13 12 14 12 15 13 14 16 18 21 21 23 24 31 27 27 27 27 26 26 25
46 45 44 43 43 42 37 35 28 25 26 25 24 25 31 25 22 22 21 20 18 17 18 16 15 16 9 13 15 17 18 19 22 25 24 26 29 27 25 25 24 21 22
45 41 42 42 41 44 41 37 33 27 25 26 25 26 30 30 26 25 21 20 19 19 18 17 19 15 13 15 16 18 17 19 23 23 23 23 25 24 27 24 20 17 17
46 43 40 37 38 41 42 39 34 30 29 28 27 26 30 28 27 25 22 19 17 17 18 19 19 20 19 19 20 20 21 22 23 23 26 25 23 20 27 26 22 20 16
49 45 44 42 39 39 40 40 39 35 37 31 30 29 30 33 30 30 25 23 24 20 21 20 20 19 21 19 20 23 24 23 24 19 21 26 30 27 24 30 27 23 21
51 50 48 46 45 40 35 41 35 35 37 35 34 32 31 29 33 33 29 29 25 23 22 24 25 19 25 26 18 27 27 21 24 23 21 22 24 28 28 28 30 29 26
53 52 54 52 50 48 44 40 41 40 37 37 37 39 39 36 36 37 29 29 28 28 28 26 25 24 20 18 21 20 23 28 26 25 23 20 23 28 28 32 31 23 26
58 57 56 61 60 61 52 47 41 37 38 35 35 38 41 39 41 40 40 32 30 32 29 23 26 22 21 20 16 19 18 14 13 18 15 19 22 24 24 30 30 31 28
62 62 65 69 68 65 60 50 47 45 38 35 40 43 41 44 42 43 44 41 37 34 30 32 25 23 22 23 24 17 20 13 9 13 13 12 12 20 25 27 29 32 34
67 59 63 67 67 67 65 58 56 50 48 44 41 36 37 42 46 44 43 44 48 37 35 32 28 28 23 24 22 20 20 24 23 20 8 11 16 10 22 26 30 35 34
53 57 57 63 65 63 63 65 59 59 50 44 43 44 43 39 43 43 44 43 45 42 37 36 38 39 29 31 26 24 23 22 24 23 28 16 9 14 15 22 30 34 38
52 53 54 57 65 65 65 63 62 64 65 51 47 45 42 38 36 43 45 43 40 38 39 40 39 37 37 33 35 31 28 26 25 23 26 25 24 25 22 22 22 28 33
Wind_Direction_850mb
161 160 152 149 147 149 147 143 139 140 143 141 138 137 131 132 137 142 149 157 158 159 154 135 139 146 177 217 250 264 263 268 278 257 143 78 116 125 131 114 113 137 157
154 160 154 151 147 148 152 147 146 142 145 147 150 152 144 143 152 155 160 163 169 173 187 204 212 240 258 272 275 275 279 274 268 267 309 32 130 147 156 141 126 203 157
155 161 157 156 153 151 151 149 148 149 152 151 155 159 159 156 157 164 168 173 185 204 225 262 271 273 282 283 287 284 274 264 254 235 133 121 249 169 164 165 168 185 167
156 159 161 161 159 159 158 156 154 154 158 162 166 171 175 174 172 174 185 199 213 237 255 262 265 273 281 291 290 292 288 226 216 195 129 193 176 246 199 185 171 180 186
155 156 170 164 164 165 164 164 162 162 162 166 173 180 183 186 189 195 207 219 229 233 235 242 253 265 271 274 277 279 290 299 118 151 205 179 183 251 223 213 196 187 167
154 158 172 168 168 170 171 168 165 166 167 178 190 197 201 201 198 201 208 217 221 229 236 246 259 266 269 268 269 270 268 267 217 191 228 258 254 240 239 209 191 200 202
156 164 167 168 168 169 172 174 175 176 185 190 197 197 196 202 205 210 217 223 234 247 259 265 267 266 268 266 264 263 259 248 226 237 239 234 262 207 207 211 210 216 228
158 163 167 170 171 174 179 181 184 183 184 184 186 188 193 197 203 210 225 240 251 258 261 267 273 276 272 267 263 259 257 255 251 245 237 238 245 242 220 214 224 217 206
162 162 167 171 176 179 182 184 192 189 186 190 190 191 196 207 220 230 240 249 254 261 271 273 268 268 271 271 269 267 264 259 236 245 246 239 261 246 238 237 235 235 221
165 169 169 172 176 178 189 190 196 198 192 200 204 208 216 227 236 240 240 255 266 264 275 278 280 275 277 272 265 262 263 263 249 248 257 232 243 239 248 257 249 240 231
172 174 174 179 178 181 186 199 198 202 197 201 208 214 225 230 249 247 245 235 254 280 284 289 281 277 272 265 268 256 252 250 252 247 242 256 238 240 249 253 253 255 242
178 181 182 180 185 185 184 200 192 202 204 209 213 223 226 226 225 219 226 219 262 292 304 292 295 284 280 254 283 277 246 249 247 244 243 250 242 246 245 257 260 260 252
183 184 187 185 188 190 187 193 195 202 206 216 218 219 221 222 233 226 239 253 277 292 325 295 275 283 251 240 238 241 244 238 234 239 239 248 246 250 260 267 267 267 259
188 188 189 191 193 190 195 197 203 204 212 212 225 228 218 216 224 223 236 250 270 273 280 318 297 256 245 248 238 241 246 238 241 239 245 256 261 261 260 270 274 274 266
192 192 192 195 199 195 199 202 202 210 219 220 223 228 218 220 227 232 243 247 261 265 284 288 295 282 270 260 256 247 248 243 242 245 248 264 260 272 266 265 266 271 265
196 197 197 200 204 205 206 206 210 213 217 219 227 229 226 222 234 244 253 251 261 265 266 273 275 271 263 269 264 252 250 248 252 243 247 259 273 260 258 260 260 268 262
202 200 201 203 207 212 214 216 217 218 223 223 228 225 223 229 243 242 247 251 260 265 271 282 289 278 270 270 270 252 253 250 246 248 246 244 264 267 245 244 251 264 260
199 203 203 208 210 216 218 219 217 221 221 227 228 229 231 232 239 242 247 252 259 268 276 274 274 277 281 280 278 262 262 256 255 253 249 239 242 249 251 239 244 256 259
204 205 205 206 208 212 218 220 222 223 223 221 226 232 240 240 244 245 245 252 266 269 275 274 275 276 272 287 279 276 266 262 253 249 248 246 242 225 225 244 234 248 255
208 209 211 211 213 214 214 222 222 224 227 226 227 230 236 240 243 249 253 255 261 264 273 271 265 267 277 292 285 272 268 268 255 254 253 254 238 228 221 223 239 237 245
210 213 214 217 219 220 221 221 222 224 227 230 232 236 241 243 242 244 249 257 263 269 273 269 273 290 289 269 294 298 275 274 256 259 264 249 239 235 227 226 224 223 241
208 210 215 220 224 227 226 226 225 229 232 234 237 239 246 247 248 247 248 249 255 262 279 268 267 271 287 274 281 291 288 267 257 248 249 243 242 237 231 222 226 220 214
209 209 211 215 223 226 226 229 233 232 235 240 240 243 247 250 251 252 248 251 253 260 270 282 268 279 285 276 278 264 301 298 330 259 274 256 267 230 232 230 229 229 229
211 209 212 214 219 228 233 227 236 236 240 247 249 252 248 251 255 257 260 261 258 252 256 270 277 268 277 280 280 288 273 268 286 292 248 274 301 258 237 233 236 236 231
214 212 213 219 222 226 238 239 239 246 245 251 251 250 248 247 253 256 258 266 260 252 253 263 267 274 265 279 270 278 279 278 277 267 281 274 287 277 257 257 241 235 234
213 213 213 218 223 225 231 240 245 251 261 252 254 251 254 251 253 262 255 262 255 240 247 261 270 267 269 265 270 272 270 273 280 270 275 275 283 282 271 266 254 240 230